Location: Unspecified
(48.8656°N, 0.0000°E)
Time: 01:40:05
(UTC+00:00)

Transit 2A Rocket - Pass Details

Date: 19 June 2019
Orbit: 593 x 910 km, 66.7° (Epoch: 14 October)

Event Time Altitude Azimuth Distance (km) Brightness Sun altitude
Rises 10:53:08 0° 205° (SSW) 3,524 8.6 61.2°
Reaches altitude 10° 10:55:40 10° 203° (SSW) 2,589 8.1 61.5°
Maximum altitude 11:01:42 70° 121° (ESE) 953 7.6 62.0°
Drops below altitude 10° 11:07:34 10° 39° (NE) 2,518 7.7 62.4°
Sets 11:10:00 0° 38° (NE) 3,422 8.2 62.6°
